GFSNW_prec_kuchsnow_324.txt.gz
Snowfall_Accumulation
0.0 0.0 0.0 0.0 0.0 0.0 0.0 0.0 6.6 0.0 0.0 2.0 4.3 5.8 2.8 0.0 0.0 0.0 0.2 0.1 0.8 2.0 1.1 2.5 0.1 0.4 0.5 0.7 2.0 2.7 2.0 7.5 5.3 3.1 3.7 2.6 4.6 5.9 7.9 11.4 12.4 10.3 6.7 5.8
0.0 0.0 0.0 0.0 0.0 0.0 0.0 2.8 1.2 0.0 0.0 7.6 3.6 0.4 0.0 0.9 1.0 0.4 1.6 1.5 1.7 1.4 0.9 7.1 0.0 3.2 1.2 0.3 1.8 4.1 2.8 5.1 5.7 5.2 2.8 2.3 6.3 6.1 6.1 6.2 11.2 12.7 9.0 3.4
0.0 0.0 0.0 0.0 0.0 0.0 0.0 3.0 7.8 0.0 0.0 0.0 3.1 4.5 1.1 0.7 0.0 1.1 1.1 1.4 0.1 2.6 1.0 0.1 4.4 3.6 2.8 1.6 1.2 0.6 4.8 5.9 6.0 6.9 13.0 11.9 9.2 5.6 3.1 4.3 13.0 8.4 4.8 2.0
0.0 0.0 0.0 0.0 0.0 0.0 0.0 3.4 3.1 0.1 5.4 0.7 2.4 3.6 3.0 2.1 2.9 0.2 0.9 1.8 1.6 4.3 5.9 1.4 1.0 0.4 0.2 0.0 1.0 1.7 4.3 4.9 1.0 2.3 2.5 4.6 5.8 5.3 5.6 7.0 5.8 8.2 6.8 2.1
0.0 0.0 0.0 0.0 0.0 0.0 0.0 4.3 4.5 2.5 2.6 0.4 1.0 1.5 2.2 1.0 1.1 2.5 1.8 2.0 1.1 1.0 3.7 3.1 3.9 2.5 0.4 2.2 1.4 4.8 3.1 4.9 6.4 8.0 3.2 2.4 3.9 2.8 3.5 4.3 5.1 4.5 5.6 5.5
0.0 0.0 0.0 0.0 0.0 0.0 0.0 1.0 0.8 7.2 1.6 0.4 1.3 1.3 1.5 2.1 1.2 0.1 0.0 0.5 0.8 0.5 0.2 0.0 0.0 0.0 1.8 2.9 3.6 1.8 6.1 9.4 12.1 12.1 2.8 5.3 4.8 8.7 8.2 10.9 13.0 10.5 8.4 7.9
0.0 0.0 0.0 0.0 0.0 0.0 0.0 0.0 1.7 15.2 7.6 0.7 0.3 0.1 0.4 0.5 0.3 2.2 0.0 0.0 0.5 0.0 0.0 0.0 0.0 0.3 2.6 2.5 2.6 1.6 4.3 7.9 11.7 17.8 11.9 22.6 10.4 3.4 3.8 8.7 11.6 12.4 9.3 5.0
0.0 0.0 0.0 0.0 0.0 0.0 0.0 0.0 1.4 14.4 13.0 0.2 0.1 0.5 0.5 0.0 0.0 0.2 0.1 0.0 0.0 0.0 0.0 0.8 2.0 1.8 1.3 0.6 0.9 2.1 3.0 5.6 11.2 16.2 14.1 12.6 7.6 7.6 11.0 10.5 12.2 9.3 6.9 2.6
0.0 0.0 0.0 0.0 0.0 0.0 0.0 0.0 0.0 7.7 17.4 1.5 0.2 0.5 0.0 1.2 0.8 0.1 0.0 0.0 0.0 0.0 0.6 2.9 6.3 3.2 0.5 1.8 0.6 0.1 0.4 2.6 9.5 13.5 15.5 11.6 10.1 10.8 12.3 6.6 9.9 4.9 4.5 3.2
0.0 0.0 0.0 0.0 0.0 0.0 0.0 0.0 0.0 1.3 19.0 0.2 0.0 1.2 1.5 0.2 0.6 2.0 0.0 0.0 0.0 0.0 1.1 5.0 4.9 2.7 1.1 1.0 3.8 2.2 1.0 3.2 10.0 10.1 15.2 9.3 7.8 6.5 7.2 13.1 11.2 5.5 6.5 5.3
0.0 0.0 0.0 0.0 0.0 0.0 0.0 0.0 0.0 0.0 14.6 0.7 0.0 0.0 0.2 1.3 1.4 5.7 0.2 1.2 0.0 1.4 4.7 6.3 1.5 3.6 1.6 2.8 2.3 7.1 6.3 6.8 5.9 7.9 16.3 10.8 2.6 2.1 9.7 11.8 5.4 5.6 5.5 6.6
0.0 0.0 0.0 0.0 0.0 0.0 0.0 0.0 0.0 0.0 3.2 1.1 0.0 0.0 0.0 0.0 0.1 2.0 1.7 0.7 0.9 2.9 5.5 3.4 5.6 6.1 3.8 2.6 5.0 1.0 8.4 8.8 11.7 8.9 12.0 9.0 5.6 8.9 8.0 4.2 2.6 2.3 2.8 3.7
0.0 0.0 0.0 0.0 0.0 0.0 0.0 0.0 0.0 0.0 6.7 2.9 0.9 0.2 0.0 0.0 0.0 0.0 4.5 0.9 0.7 1.7 2.3 8.2 7.7 8.2 3.5 4.8 2.3 1.6 2.6 1.5 3.1 2.7 2.8 0.9 5.3 2.5 1.1 1.2 2.8 1.9 1.2 1.3
0.0 0.0 0.0 0.0 0.0 0.0 0.0 0.0 0.0 0.0 6.5 17.8 1.2 0.0 0.0 0.0 0.0 0.0 0.0 0.8 1.2 2.5 1.8 10.3 12.0 9.6 2.9 3.7 2.4 1.8 2.0 0.2 1.3 1.6 0.3 0.9 1.7 0.8 1.2 0.9 0.6 0.5 0.2 1.3
0.0 0.0 0.0 0.0 0.0 0.0 0.0 0.0 0.0 0.0 2.3 19.2 4.0 0.4 0.4 0.0 0.0 0.0 0.0 0.0 0.1 1.1 6.5 11.7 11.2 5.0 6.1 5.6 3.1 4.0 2.9 4.3 3.5 2.4 1.8 2.7 0.0 0.4 0.4 0.3 0.3 0.1 0.6 1.9
0.0 0.0 0.0 0.0 0.0 0.0 0.0 2.7 0.0 0.0 0.0 10.8 18.4 0.8 0.4 0.0 0.0 0.0 0.0 0.0 0.1 2.9 7.0 10.9 5.8 4.7 8.1 12.6 5.5 2.9 1.7 1.5 3.7 3.3 0.9 1.4 1.3 0.1 0.1 1.2 0.7 0.6 1.7 2.3
0.0 0.0 0.0 0.0 0.0 0.0 0.3 3.6 0.1 0.0 0.0 19.7 35.8 17.9 2.7 0.9 0.8 1.4 1.6 1.2 1.4 4.7 12.3 12.5 7.8 7.3 8.8 16.2 10.2 2.3 1.2 1.4 2.3 1.2 0.7 1.5 0.5 1.3 1.6 1.1 0.5 2.0 2.0 1.7
0.0 0.0 0.0 0.0 0.0 0.1 0.2 0.0 0.0 0.0 1.8 14.3 61.4 36.2 10.2 1.3 2.3 5.7 4.8 5.8 4.8 13.8 13.2 11.2 7.2 6.5 10.0 20.3 3.4 1.8 0.8 1.1 2.4 2.5 2.4 4.9 3.4 3.4 3.0 1.0 2.5 2.1 2.5 2.5
0.0 0.0 0.0 0.7 0.4 0.5 0.4 0.0 0.0 0.0 0.4 55.8 43.1 27.3 12.5 3.1 2.7 4.0 7.6 9.0 25.6 17.4 20.3 11.6 7.8 18.5 28.8 16.6 6.7 2.6 4.5 8.0 6.8 5.0 4.0 3.2 3.4 4.0 4.1 3.1 2.3 3.9 6.4 5.2
0.0 1.9 3.7 13.6 2.7 0.2 0.3 0.4 9.1 21.9 32.5 33.2 30.3 11.8 12.0 4.9 6.3 11.3 16.3 20.6 31.8 40.9 24.6 14.3 24.4 22.9 13.9 10.4 11.2 10.7 9.8 9.4 9.2 11.0 8.0 4.8 6.7 6.5 7.2 9.1 9.5 9.6 10.6 10.6
5.8 17.3 18.5 4.0 0.9 1.9 8.6 35.6 39.9 32.8 35.8 16.1 11.8 7.7 9.7 5.7 17.1 19.9 19.3 31.6 30.2 39.8 22.1 19.2 25.0 21.5 12.6 10.0 12.7 12.2 11.9 11.8 12.2 12.8 13.1 14.7 17.0 16.6 13.4 11.2 12.8 12.4 12.5 13.4
5.3 5.2 6.0 7.3 22.1 36.8 45.5 42.8 22.0 17.0 15.7 12.7 10.1 6.9 7.4 11.8 10.9 24.9 27.5 29.9 27.3 31.3 13.1 22.8 21.6 13.7 11.9 14.5 15.4 15.2 14.8 14.4 13.5 13.4 14.5 13.5 13.9 15.1 14.8 15.1 15.2 13.7 12.6 11.5
6.9 23.5 38.7 35.8 39.1 55.2 41.3 25.2 16.6 16.0 10.3 11.3 9.9 12.0 11.9 14.7 18.5 30.0 28.0 33.6 26.7 13.7 19.0 18.0 17.0 13.1 12.7 15.4 16.8 16.8 16.2 14.5 14.0 14.0 12.6 12.3 12.9 12.2 12.1 12.2 10.3 10.3 9.9 10.9
28.3 44.2 50.7 33.2 31.1 16.9 14.6 11.6 10.9 9.7 11.5 13.3 15.1 16.3 16.7 14.8 25.2 22.3 31.1 21.7 12.8 26.8 20.9 18.4 16.3 15.6 14.4 13.4 14.4 14.3 14.7 14.4 13.7 15.9 15.5 13.6 12.1 11.3 10.0 10.7 11.9 10.3 9.6 10.4
45.6 36.0 33.2 19.1 11.4 9.9 11.3 10.3 10.0 11.5 13.2 18.3 19.6 19.9 18.5 22.3 28.9 19.4 15.0 23.0 23.8 20.8 19.4 17.4 17.6 16.8 16.1 15.3 14.0 13.1 11.8 12.7 12.2 12.1 12.2 13.5 11.1 8.7 7.9 9.7 10.1 9.6 9.0 7.9
38.7 31.4 18.0 8.5 8.4 8.2 5.9 8.2 9.2 9.5 12.6 13.5 17.9 19.4 22.7 22.7 19.2 20.1 18.3 17.8 19.7 20.7 20.6 19.6 17.4 15.9 15.5 15.9 15.2 14.6 14.5 14.4 14.4 13.0 13.8 12.1 12.8 14.5 14.4 11.0 9.9 9.6 9.3 7.9
41.5 18.8 11.1 11.6 7.8 6.8 6.4 6.5 6.4 5.4 9.2 12.1 13.8 22.3 17.7 16.5 19.2 17.2 14.0 19.4 21.0 18.5 15.7 13.9 14.8 14.3 13.9 12.5 11.0 10.6 9.2 8.8 8.9 10.1 11.2 13.2 13.5 12.7 10.9 11.6 14.4 13.2 12.6 11.9

GFSNW_prec_kuchsnow_327.txt.gz
Snowfall_Accumulation
0.0 0.0 0.0 0.0 0.0 0.0 0.0 0.0 6.6 0.0 0.0 2.0 4.3 5.8 2.8 0.0 0.0 0.0 0.2 0.1 0.8 2.0 1.1 2.5 0.1 0.4 0.5 0.7 2.0 2.7 2.0 7.5 5.3 3.1 3.7 2.6 4.6 5.9 8.3 12.0 12.9 10.7 7.0 6.2
0.0 0.0 0.0 0.0 0.0 0.0 0.0 2.8 1.2 0.0 0.0 7.6 3.6 0.4 0.0 0.9 1.0 0.4 1.6 1.5 1.7 1.4 0.9 7.1 0.0 3.2 1.2 0.3 1.8 4.2 2.8 5.1 5.7 5.2 2.8 2.3 6.3 6.1 6.1 6.2 11.9 13.3 9.6 3.7
0.0 0.0 0.0 0.0 0.0 0.0 0.0 3.0 7.8 0.0 0.0 0.0 3.1 4.5 1.1 0.7 0.0 1.1 1.1 1.4 0.1 2.6 1.0 0.1 4.4 3.6 2.8 1.6 1.2 0.6 4.8 5.9 6.0 6.9 13.0 12.0 9.3 5.6 3.1 4.7 13.7 9.0 5.2 2.1
0.0 0.0 0.0 0.0 0.0 0.0 0.0 3.4 3.1 0.1 5.4 0.7 2.4 3.6 3.0 2.1 2.9 0.2 0.9 1.8 1.6 4.3 6.0 1.4 1.0 0.4 0.2 0.0 1.0 1.7 4.3 4.9 1.0 2.3 2.5 4.6 5.8 5.3 5.6 7.0 6.3 8.9 7.6 2.3
0.0 0.0 0.0 0.0 0.0 0.0 0.0 4.3 4.5 2.5 2.6 0.4 1.0 1.5 2.2 1.0 1.1 2.5 1.8 2.0 1.1 1.0 3.8 3.1 3.9 2.5 0.4 2.2 1.4 4.8 3.1 4.9 6.4 8.0 3.2 2.4 4.1 2.8 3.5 4.4 5.4 4.8 6.2 6.3
0.0 0.0 0.0 0.0 0.0 0.0 0.0 1.0 0.8 7.2 1.6 0.4 1.3 1.3 1.5 2.1 1.2 0.1 0.0 0.5 0.8 0.5 0.2 0.0 0.0 0.0 1.8 2.9 3.6 2.0 6.1 9.4 12.1 12.1 2.8 5.3 5.1 8.7 8.2 10.9 13.0 10.8 8.7 8.3
0.0 0.0 0.0 0.0 0.0 0.0 0.0 0.0 1.7 15.3 7.7 0.7 0.3 0.1 0.4 0.5 0.3 2.2 0.0 0.0 0.5 0.0 0.0 0.0 0.0 0.3 2.6 2.5 2.6 1.6 4.4 7.9 11.7 17.8 11.9 22.6 10.4 3.4 3.8 8.7 11.6 12.4 9.6 5.3
0.0 0.0 0.0 0.0 0.0 0.0 0.0 0.0 1.4 14.6 13.2 0.2 0.1 0.5 0.5 0.0 0.0 0.2 0.1 0.0 0.0 0.0 0.0 0.8 2.0 1.8 1.3 0.6 0.9 2.1 3.0 5.6 11.2 16.2 14.1 12.6 7.6 7.7 11.0 10.5 12.4 9.3 7.1 2.6
0.0 0.0 0.0 0.0 0.0 0.0 0.0 0.0 0.0 7.7 17.7 1.5 0.2 0.5 0.0 1.2 0.8 0.1 0.0 0.0 0.0 0.0 0.6 2.9 6.3 3.2 0.5 1.8 0.6 0.1 0.4 2.6 9.5 13.5 15.6 11.6 10.1 10.8 12.3 6.6 10.1 4.9 4.5 3.2
0.0 0.0 0.0 0.0 0.0 0.0 0.0 0.0 0.0 1.3 19.5 0.2 0.0 1.3 1.6 0.2 0.6 2.0 0.0 0.0 0.0 0.0 1.1 5.0 4.9 2.7 1.1 1.0 3.8 2.2 1.0 3.2 10.0 10.2 15.2 9.3 7.8 6.5 7.2 13.1 11.3 5.5 6.5 5.3
0.0 0.0 0.0 0.0 0.0 0.0 0.0 0.0 0.0 0.0 15.4 0.7 0.0 0.0 0.2 1.4 1.5 5.8 0.2 1.2 0.0 1.5 4.8 6.3 1.5 3.6 1.6 2.8 2.3 7.1 6.3 6.8 6.0 7.9 16.3 10.9 2.6 2.1 9.7 11.9 5.4 5.6 5.6 6.6
0.0 0.0 0.0 0.0 0.0 0.0 0.0 0.0 0.0 0.0 3.2 1.3 0.0 0.0 0.0 0.0 0.1 2.1 1.7 0.7 0.9 2.9 5.6 3.5 5.8 6.1 3.9 2.6 5.1 1.0 8.6 8.8 11.7 8.9 12.0 9.0 5.6 8.9 8.0 4.2 2.6 2.3 2.9 3.7
0.0 0.0 0.0 0.0 0.0 0.0 0.0 0.0 0.0 0.0 7.6 3.3 1.1 0.3 0.0 0.0 0.0 0.0 4.6 0.9 0.7 1.8 2.3 8.5 7.9 8.3 3.5 4.9 2.3 1.6 2.6 1.5 3.3 2.7 3.0 0.9 5.3 2.6 1.1 1.2 2.8 1.9 1.2 1.4
0.0 0.0 0.0 0.0 0.0 0.0 0.0 0.0 0.0 0.0 7.4 18.7 1.3 0.0 0.0 0.0 0.0 0.0 0.0 0.8 1.2 2.5 1.8 10.5 12.1 9.7 2.9 3.9 2.4 1.8 2.0 0.2 1.3 1.6 0.3 1.0 1.7 0.8 1.2 0.9 0.6 0.5 0.2 1.3
0.0 0.0 0.0 0.0 0.0 0.0 0.0 0.0 0.0 0.0 2.9 20.4 4.4 0.5 0.4 0.0 0.0 0.0 0.0 0.0 0.1 1.1 6.5 11.7 11.2 5.0 6.1 5.6 3.1 4.0 2.9 4.3 3.5 2.5 1.8 2.7 0.0 0.4 0.4 0.3 0.3 0.1 0.6 1.9
0.0 0.0 0.0 0.0 0.0 0.0 0.0 3.9 0.0 0.0 0.3 11.6 19.1 1.2 0.4 0.0 0.0 0.0 0.0 0.0 0.1 2.9 7.0 10.9 5.8 4.7 8.1 12.6 5.6 2.9 1.7 1.5 3.7 3.3 0.9 1.4 1.3 0.1 0.1 1.2 0.7 0.6 1.8 2.3
0.0 0.0 0.0 0.0 0.0 0.0 1.0 4.5 0.6 0.0 0.0 20.6 36.9 18.7 2.7 0.9 0.8 1.4 1.6 1.2 1.4 4.7 12.3 12.5 7.8 7.3 8.8 16.2 10.2 2.3 1.2 1.4 2.3 1.2 0.7 1.5 0.5 1.3 1.6 1.1 0.5 2.0 2.0 1.7
0.0 0.0 0.0 0.0 0.0 0.4 0.8 0.5 0.4 0.3 2.8 15.2 62.5 37.2 10.7 1.4 2.3 5.7 4.8 5.8 4.8 13.8 13.3 11.2 7.2 6.5 10.0 20.3 3.4 1.8 0.8 1.1 2.5 2.5 2.4 4.9 3.4 3.4 3.0 1.0 2.5 2.1 2.5 2.5
0.0 0.0 0.0 2.3 1.9 1.5 1.4 0.5 0.5 0.6 1.1 57.0 44.5 28.4 13.6 3.1 2.7 4.0 7.6 9.0 25.6 17.4 20.3 11.6 7.8 18.5 28.8 16.6 6.7 2.6 4.5 8.0 6.8 5.0 4.0 3.2 3.4 4.0 4.1 3.1 2.3 3.9 6.4 5.2
0.0 3.0 6.5 17.4 4.3 0.7 0.9 1.4 9.7 22.4 33.0 33.7 30.8 12.4 12.4 4.9 6.3 11.3 16.3 20.6 31.8 41.0 24.6 14.3 24.4 22.9 13.9 10.4 11.2 10.7 9.8 9.4 9.2 11.0 8.0 4.8 6.7 6.5 7.2 9.1 9.5 9.6 10.6 10.6
7.5 20.1 22.5 7.2 1.7 3.3 9.8 36.9 40.5 33.4 36.6 16.6 12.0 7.7 9.7 5.7 17.1 19.9 19.3 31.6 30.2 39.8 22.2 19.2 25.0 21.5 12.6 10.0 12.7 12.2 11.9 11.8 12.2 12.8 13.1 14.7 17.0 16.6 13.4 11.2 12.8 12.4 12.5 13.4
6.7 8.1 8.9 10.0 24.2 38.5 46.7 43.8 22.4 17.7 16.6 13.0 10.1 6.9 7.4 11.8 10.9 24.9 27.5 29.9 27.3 31.3 13.1 22.8 21.6 13.7 11.9 14.5 15.4 15.2 14.8 14.4 13.5 13.4 14.5 13.5 13.9 15.1 14.8 15.1 15.2 13.7 12.6 11.5
10.3 27.3 41.9 37.6 40.6 56.7 42.2 25.6 17.2 16.9 11.0 11.6 10.2 12.1 11.9 14.7 18.5 30.0 28.0 33.6 26.7 13.7 19.0 18.0 17.0 13.1 12.7 15.4 16.8 16.8 16.2 14.5 14.0 14.0 12.6 12.3 12.9 12.2 12.1 12.2 10.3 10.3 9.9 10.9
32.9 47.6 53.1 34.4 32.3 17.4 15.2 12.6 12.3 11.3 12.5 13.9 15.3 16.4 16.7 14.8 25.2 22.3 31.1 21.7 12.8 26.8 20.9 18.4 16.3 15.6 14.4 13.4 14.4 14.3 14.7 14.4 13.7 15.9 15.5 13.6 12.1 11.3 10.0 10.7 11.9 10.4 9.6 10.4
49.9 38.5 34.7 20.0 11.7 9.9 13.0 12.3 11.5 12.4 13.8 18.5 19.7 19.9 18.5 22.3 28.9 19.4 15.0 23.0 23.8 20.8 19.4 17.4 17.6 16.8 16.1 15.3 14.0 13.1 11.8 12.7 12.2 12.1 12.2 13.5 11.1 8.7 7.9 9.7 10.1 9.7 9.1 8.0
42.3 33.6 19.0 9.0 9.3 10.3 8.1 9.7 10.2 10.1 12.9 13.6 17.9 19.4 22.7 22.7 19.2 20.1 18.3 17.8 19.7 20.7 20.6 19.6 17.4 15.9 15.5 15.9 15.2 14.6 14.5 14.4 14.4 13.0 13.8 12.1 12.8 14.5 14.4 11.0 10.0 9.7 9.5 7.9
43.4 19.6 11.6 12.8 9.8 8.9 8.2 7.5 7.0 5.6 9.2 12.1 13.8 22.3 17.7 16.5 19.2 17.2 14.0 19.4 21.0 18.5 15.7 13.9 14.8 14.3 13.9 12.5 11.0 10.6 9.2 8.8 8.9 10.1 11.2 13.2 13.5 12.7 10.9 11.6 14.5 13.2 12.8 11.9

GFSNW_prec_kuchsnow_333.txt.gz
Snowfall_Accumulation
0.0 0.0 0.0 0.0 0.0 0.0 0.0 0.0 6.6 0.0 0.0 2.0 4.3 5.8 2.8 0.0 0.0 0.0 0.2 0.1 0.8 2.0 1.1 2.5 0.1 0.4 0.5 0.7 2.0 2.7 2.0 7.7 5.4 3.1 3.7 2.6 4.6 5.9 8.3 12.0 12.9 10.7 8.0 7.4
0.0 0.0 0.0 0.0 0.0 0.0 0.0 2.8 1.2 0.0 0.0 7.6 3.6 0.4 0.0 0.9 1.0 0.4 1.6 1.5 1.7 1.4 0.9 7.1 0.0 3.2 1.2 0.3 1.8 4.2 2.8 5.1 5.7 5.2 2.8 2.3 6.4 6.1 6.1 6.2 12.3 13.7 10.8 4.5
0.0 0.0 0.0 0.0 0.0 0.0 0.0 3.0 7.8 0.0 0.0 0.0 3.1 4.5 1.1 0.7 0.0 1.1 1.1 1.4 0.1 2.6 1.0 0.1 4.4 3.6 2.8 1.6 1.2 0.6 5.0 6.1 6.0 6.9 13.0 12.0 9.3 5.6 3.1 4.7 14.1 9.3 5.5 2.1
0.0 0.0 0.0 0.0 0.0 0.0 0.0 3.4 3.1 0.1 5.4 0.7 2.4 3.6 3.0 2.1 2.9 0.2 0.9 1.8 1.6 4.3 6.0 1.4 1.0 0.4 0.2 0.0 1.0 1.7 4.3 4.9 1.0 2.3 2.5 4.6 5.8 5.3 5.6 7.0 6.3 9.1 7.6 2.3
0.0 0.0 0.0 0.0 0.0 0.0 0.0 4.3 4.5 2.5 2.6 0.4 1.0 1.5 2.2 1.0 1.1 2.5 1.8 2.0 1.1 1.0 3.8 3.1 3.9 2.5 0.4 2.2 1.4 4.8 3.2 4.9 6.4 8.0 3.2 2.4 4.1 2.8 3.5 4.4 5.4 4.8 6.2 6.3
0.0 0.0 0.0 0.0 0.0 0.0 0.0 1.0 0.8 7.2 1.7 0.4 1.3 1.3 1.5 2.1 1.3 0.1 0.0 0.5 0.8 0.5 0.2 0.0 0.0 0.0 1.8 2.9 3.6 2.1 6.9 9.8 12.3 12.2 2.8 5.3 5.1 8.7 8.2 10.9 13.0 10.8 8.7 8.3
0.0 0.0 0.0 0.0 0.0 0.0 0.0 0.0 1.7 16.3 8.4 0.7 0.3 0.1 0.4 0.5 0.4 2.3 0.0 0.0 0.8 0.0 0.0 0.0 0.0 0.3 2.6 2.5 2.6 1.6 4.4 8.3 11.8 17.8 11.9 22.6 10.4 3.4 3.8 8.7 11.6 12.4 9.6 5.3
0.0 0.0 0.0 0.0 0.0 0.0 0.0 0.0 1.4 16.2 14.8 0.3 0.2 0.5 0.5 0.0 0.0 0.3 0.3 0.0 0.0 0.0 0.0 0.8 2.0 1.8 1.3 0.6 0.9 2.1 3.0 5.8 11.2 16.2 14.1 12.6 7.6 7.7 11.0 10.5 12.4 9.3 7.1 2.6
0.0 0.0 0.0 0.0 0.0 0.0 0.0 0.0 0.0 7.7 20.3 1.9 0.2 0.5 0.0 1.6 1.5 0.8 0.0 0.0 0.0 0.0 0.7 3.1 6.5 3.2 0.5 1.8 0.6 0.1 0.4 2.6 9.7 13.5 15.6 11.6 10.1 10.8 12.3 6.6 10.1 4.9 4.5 3.2
0.0 0.0 0.0 0.0 0.0 0.0 0.0 0.0 0.0 1.3 23.3 0.3 0.0 1.3 2.3 1.0 2.0 3.8 0.6 0.2 0.2 0.1 1.6 5.6 5.1 2.7 1.1 1.0 3.8 2.3 1.0 3.2 10.4 10.2 15.8 9.3 7.8 6.5 7.2 13.1 11.3 5.5 6.5 5.3
0.0 0.0 0.0 0.0 0.0 0.0 0.0 0.0 0.0 0.0 15.4 0.7 0.0 0.0 0.4 2.8 3.3 8.2 2.4 3.1 0.8 2.3 5.5 6.6 1.5 3.6 1.6 2.8 2.3 7.1 6.3 6.8 6.0 8.0 17.1 11.2 2.6 2.1 9.8 11.9 5.4 5.6 5.6 6.6
0.0 0.0 0.0 0.0 0.0 0.0 0.0 0.0 0.0 0.0 3.2 1.9 0.0 0.0 0.0 0.0 0.1 4.1 4.8 2.3 1.7 3.5 6.3 3.9 6.2 6.2 4.0 2.6 5.2 1.0 8.6 8.8 11.7 8.9 12.0 9.0 5.6 8.9 8.0 4.2 2.6 2.3 2.9 3.7
0.0 0.0 0.0 0.0 0.0 0.0 0.0 0.0 0.0 0.0 10.2 4.3 1.7 0.8 0.1 0.0 0.3 0.4 8.2 3.6 2.1 3.3 2.7 9.3 8.6 9.2 3.7 5.2 2.4 1.6 2.6 1.5 3.3 2.7 3.0 1.0 5.3 2.6 1.1 1.2 2.8 1.9 1.2 1.4
0.0 0.0 0.0 0.0 0.0 0.0 0.0 0.0 0.0 0.0 12.7 26.0 3.8 0.1 0.1 0.0 0.1 1.5 2.3 3.5 3.1 3.9 2.8 12.0 13.4 10.5 3.1 4.1 2.4 1.8 2.0 0.2 1.3 1.6 0.3 1.2 1.7 0.8 1.2 0.9 0.6 0.5 0.2 1.3
0.0 0.0 0.0 0.0 0.0 0.0 0.0 0.0 0.0 0.0 2.9 28.3 9.5 2.2 0.6 0.0 0.1 1.3 2.2 2.7 2.8 3.1 8.3 13.1 12.3 5.5 6.7 6.5 3.4 4.1 2.9 4.4 3.5 2.5 1.8 2.7 0.3 0.5 0.4 0.3 0.3 0.1 0.6 1.9
0.0 0.0 0.0 0.0 0.0 0.0 0.0 6.0 0.0 0.0 0.3 18.7 26.2 3.6 0.4 0.0 0.2 1.1 1.8 1.7 1.8 4.2 8.1 11.8 6.5 5.0 8.9 13.7 5.9 2.9 1.7 1.5 3.7 3.3 0.9 1.4 1.3 0.2 0.1 1.2 0.7 0.6 1.8 2.3
0.0 0.0 0.0 0.0 0.0 0.0 1.0 6.5 1.2 0.0 0.0 26.0 41.1 21.2 2.7 0.9 1.0 2.5 2.8 2.2 2.5 5.8 13.4 13.4 8.3 7.6 9.6 17.0 10.4 2.3 1.2 1.4 2.3 1.2 0.7 1.5 0.5 1.3 1.6 1.1 0.5 2.0 2.0 1.7
0.0 0.0 0.0 0.0 0.0 0.6 2.9 2.8 1.2 1.1 6.0 17.8 65.4 39.4 11.4 2.0 3.7 7.2 5.9 7.1 5.7 14.7 13.9 11.6 7.3 6.6 10.3 20.6 3.4 1.8 0.8 1.1 2.5 2.5 2.4 4.9 3.4 3.4 3.0 1.0 2.5 2.1 2.5 2.5
0.0 0.0 0.0 2.3 3.1 3.4 3.1 1.4 2.6 3.5 3.2 59.6 46.3 29.3 15.5 5.2 4.0 5.2 8.4 9.5 26.1 17.6 20.5 11.6 7.8 18.5 28.8 16.6 6.7 2.6 4.5 8.0 6.8 5.0 4.0 3.2 3.4 4.0 4.1 3.1 2.3 3.9 6.4 5.2
0.0 3.0 7.2 19.7 6.0 1.0 1.4 3.7 12.4 24.9 34.8 35.1 31.8 13.6 14.4 7.4 8.3 12.7 17.3 21.0 31.9 41.1 24.6 14.3 24.4 22.9 13.9 10.4 11.2 10.7 9.8 9.4 9.2 11.0 8.0 4.8 6.7 6.5 7.2 9.1 9.5 9.6 10.6 10.6
7.5 21.3 24.8 9.6 2.1 4.4 11.4 38.9 41.5 33.9 37.3 17.3 12.4 8.4 11.3 7.7 19.0 21.4 20.4 32.0 30.4 39.8 22.2 19.2 25.0 21.5 12.6 10.0 12.7 12.2 11.9 11.8 12.2 12.8 13.1 14.7 17.0 16.6 13.4 11.2 12.8 12.4 12.5 13.4
6.9 9.4 10.3 11.9 26.1 40.4 48.3 45.1 23.0 18.2 16.6 13.9 10.5 7.5 9.0 13.4 12.0 25.8 28.1 30.3 27.4 31.3 13.1 22.8 21.6 13.7 11.9 14.5 15.4 15.2 14.8 14.4 13.5 13.4 14.5 13.5 13.9 15.1 14.8 15.1 15.2 13.7 12.6 11.5
12.7 30.5 45.0 39.9 42.4 58.1 42.9 25.6 17.4 16.9 12.2 12.9 11.8 13.7 13.2 15.6 19.2 30.4 28.2 33.8 26.7 13.7 19.0 18.0 17.0 13.1 12.7 15.4 16.8 16.8 16.2 14.5 14.0 14.0 12.6 12.3 12.9 12.2 12.1 12.2 10.3 10.3 9.9 10.9
36.8 51.3 56.4 36.0 33.4 17.4 15.2 12.8 12.3 12.6 13.8 15.7 16.9 17.8 17.6 15.4 25.8 22.5 31.3 21.8 12.8 26.8 20.9 18.4 16.3 15.6 14.4 13.4 14.4 14.3 14.7 14.4 13.7 15.9 15.5 13.6 12.1 11.3 10.0 10.7 11.9 10.4 9.6 10.4
55.1 42.4 37.4 21.5 12.1 10.1 13.1 13.4 12.8 14.9 16.3 20.3 20.9 20.7 18.8 22.6 29.0 19.4 15.0 23.0 23.8 20.8 19.4 17.4 17.6 16.8 16.1 15.3 14.0 13.1 11.8 12.7 12.2 12.1 12.2 13.5 11.1 8.7 7.9 9.7 10.1 9.7 9.1 8.1
47.7 37.7 20.4 9.5 9.6 11.3 10.0 12.4 13.2 12.9 14.8 14.5 18.0 19.5 22.8 22.7 19.2 20.1 18.3 17.8 19.7 20.7 20.6 19.6 17.4 15.9 15.5 15.9 15.2 14.6 14.5 14.4 14.4 13.0 13.8 12.1 12.8 14.5 14.4 11.0 10.0 9.9 9.7 8.2
47.9 21.3 12.0 13.4 11.5 11.7 11.3 10.6 9.7 7.4 10.0 12.3 13.8 22.3 17.7 16.5 19.2 17.2 14.0 19.4 21.0 18.5 15.7 13.9 14.8 14.3 13.9 12.5 11.0 10.6 9.2 8.8 8.9 10.1 11.2 13.2 13.5 12.7 10.9 11.6 14.5 13.2 13.0 12.0

GFSNW_prec_kuchsnow_336.txt.gz
Snowfall_Accumulation
0.0 0.0 0.0 0.0 0.0 0.0 0.0 0.0 6.6 0.0 0.0 2.0 4.3 5.8 2.8 0.0 0.0 0.0 0.2 0.1 0.8 2.0 1.1 2.5 0.1 0.4 0.5 0.7 2.0 2.7 2.0 7.7 5.4 3.1 3.7 2.6 4.6 5.9 8.3 12.0 12.9 10.7 8.0 7.4
0.0 0.0 0.0 0.0 0.0 0.0 0.0 2.8 1.2 0.0 0.0 7.6 3.6 0.4 0.0 0.9 1.0 0.4 1.6 1.5 1.7 1.4 0.9 7.1 0.0 3.2 1.2 0.3 1.8 4.2 2.8 5.1 5.7 5.2 2.8 2.3 6.4 6.1 6.1 6.2 12.3 13.7 10.8 4.5
0.0 0.0 0.0 0.0 0.0 0.0 0.0 3.0 7.8 0.0 0.0 0.0 3.1 4.5 1.1 0.7 0.0 1.1 1.1 1.4 0.1 2.6 1.0 0.1 4.4 3.6 2.8 1.6 1.2 0.6 5.0 6.1 6.0 6.9 13.0 12.0 9.3 5.6 3.1 4.7 14.1 9.3 5.5 2.1
0.0 0.0 0.0 0.0 0.0 0.0 0.0 3.4 3.1 0.1 5.4 0.7 2.4 3.6 3.0 2.1 2.9 0.2 0.9 1.8 1.6 4.3 6.0 1.4 1.0 0.4 0.2 0.0 1.0 1.7 4.3 5.2 1.0 2.3 2.5 4.6 5.8 5.3 5.6 7.0 6.3 9.1 7.6 2.3
0.0 0.0 0.0 0.0 0.0 0.0 0.0 4.3 4.5 2.5 2.6 0.4 1.0 1.5 2.2 1.0 1.1 2.5 1.8 2.0 1.1 1.0 3.8 3.1 3.9 2.5 0.4 2.2 1.4 4.8 3.2 4.9 6.4 8.0 3.2 2.4 4.1 2.8 3.5 4.4 5.4 4.8 6.2 6.3
0.0 0.0 0.0 0.0 0.0 0.0 0.0 1.0 0.8 7.2 1.7 0.4 1.3 1.3 1.5 2.1 1.3 0.1 0.0 0.5 1.0 0.5 0.2 0.0 0.0 0.0 1.8 2.9 3.7 2.3 6.9 10.0 12.7 12.4 2.8 5.3 5.1 8.7 8.2 10.9 13.0 10.8 8.7 8.3
0.0 0.0 0.0 0.0 0.0 0.0 0.0 0.0 1.7 16.3 8.6 0.9 0.3 0.1 0.4 0.5 0.4 2.4 0.0 0.1 1.8 0.0 0.0 0.0 0.1 0.3 2.6 2.5 2.6 1.6 4.7 8.7 12.3 18.1 11.9 22.6 10.4 3.4 3.8 8.7 11.6 12.4 9.6 5.3
0.0 0.0 0.0 0.0 0.0 0.0 0.0 0.0 1.4 16.2 15.4 0.4 0.2 0.5 0.5 0.0 0.0 0.4 0.6 0.0 0.0 0.4 0.9 1.7 2.4 1.8 1.3 0.6 0.9 2.1 3.0 6.3 11.7 16.4 14.1 12.6 7.6 7.7 11.0 10.5 12.4 9.3 7.1 2.6
0.0 0.0 0.0 0.0 0.0 0.0 0.0 0.0 0.0 7.7 21.3 2.3 0.2 0.5 0.1 1.9 1.8 1.3 0.1 0.0 0.0 1.0 1.9 4.1 7.3 3.3 0.5 1.8 0.6 0.2 0.6 2.9 10.2 13.7 15.8 11.7 10.1 10.8 12.3 6.6 10.1 4.9 4.5 3.2
0.0 0.0 0.0 0.0 0.0 0.0 0.0 0.0 0.0 1.3 25.4 0.3 0.0 1.4 2.4 1.3 2.0 5.3 1.4 0.5 1.1 0.7 2.8 6.9 5.6 2.9 1.1 1.0 3.8 2.5 1.3 3.8 11.1 10.4 16.3 9.3 7.8 6.5 7.2 13.1 11.3 5.5 6.5 5.3
0.0 0.0 0.0 0.0 0.0 0.0 0.0 0.0 0.0 0.0 18.1 0.7 0.0 0.0 0.4 3.1 4.3 9.8 4.2 5.2 2.0 3.1 6.6 7.3 1.5 4.1 1.6 2.8 2.3 7.1 6.3 7.3 6.5 8.5 17.9 11.4 2.6 2.1 9.8 11.9 5.4 5.6 5.6 6.6
0.0 0.0 0.0 0.0 0.0 0.0 0.0 0.0 0.0 0.0 3.2 1.9 0.0 0.0 0.0 0.0 0.1 4.1 7.5 3.5 2.5 4.9 7.5 4.6 7.3 6.9 4.3 2.6 5.2 1.0 8.7 8.8 11.9 8.9 12.0 9.0 5.6 8.9 8.0 4.2 2.6 2.3 2.9 3.7
0.0 0.0 0.0 0.0 0.0 0.0 0.0 0.0 0.0 0.0 10.2 4.3 1.7 0.8 0.1 0.0 0.3 0.4 10.3 6.1 3.1 5.0 3.5 10.7 10.1 10.6 4.1 5.5 2.7 1.6 2.7 1.5 3.7 3.0 3.1 1.0 5.3 2.6 1.1 1.2 2.8 1.9 1.2 1.4
0.0 0.0 0.0 0.0 0.0 0.0 0.0 0.0 0.0 0.0 12.7 29.2 4.5 0.1 0.1 0.0 0.1 2.1 3.8 5.4 4.9 5.3 4.4 14.0 14.8 11.3 3.5 4.7 2.4 1.8 2.0 0.5 2.1 2.2 0.5 1.2 1.8 0.8 1.2 0.9 0.6 0.5 0.2 1.3
0.0 0.0 0.0 0.0 0.0 0.0 0.0 0.0 0.0 0.0 2.9 30.9 11.2 2.9 0.8 0.0 0.1 1.7 3.3 4.7 5.2 5.4 10.5 15.1 13.7 6.2 7.5 7.6 4.0 4.5 2.9 4.4 4.1 2.9 1.8 2.7 0.3 0.5 0.4 0.3 0.3 0.1 0.6 1.9
0.0 0.0 0.0 0.0 0.0 0.0 0.0 6.0 0.0 0.0 0.3 20.8 28.4 4.3 0.4 0.0 0.3 1.3 2.6 3.1 3.9 6.4 10.0 13.4 7.7 5.9 10.0 15.3 6.4 2.9 1.7 1.5 3.9 3.4 0.9 1.4 1.3 0.2 0.1 1.2 0.7 0.6 1.8 2.3
0.0 0.0 0.0 0.0 0.0 0.0 1.0 6.5 1.2 0.0 0.0 27.9 42.7 21.7 2.7 1.0 1.0 2.7 3.4 3.1 3.9 7.4 15.0 14.6 9.1 8.3 11.0 18.4 10.7 2.3 1.2 1.7 2.5 1.2 0.7 1.5 0.5 1.3 1.6 1.1 0.5 2.0 2.0 1.7
0.0 0.0 0.0 0.0 0.0 0.6 2.9 2.8 1.2 1.1 6.8 19.1 66.6 39.7 11.4 2.0 3.8 7.2 6.5 8.0 6.8 15.9 15.0 12.2 7.7 7.3 11.3 21.4 3.4 1.9 1.1 1.1 2.5 2.5 2.4 4.9 3.4 3.4 3.0 1.0 2.5 2.1 2.5 2.5
0.0 0.0 0.0 2.3 3.2 3.5 3.4 1.6 3.1 4.4 4.1 61.0 46.9 29.3 15.5 5.3 4.0 5.2 8.9 10.0 26.8 18.3 20.9 11.6 8.0 18.8 28.9 16.6 6.7 2.6 4.5 8.0 6.8 5.0 4.0 3.2 3.4 4.0 4.1 3.1 2.3 3.9 6.4 5.2
0.0 3.0 7.2 20.6 6.5 1.0 1.6 4.4 13.3 26.0 35.5 35.9 32.2 13.8 14.6 7.6 8.3 13.3 18.1 21.6 32.2 41.3 24.6 14.3 24.4 22.9 13.9 10.4 11.2 10.7 9.8 9.4 9.2 11.0 8.0 4.8 6.7 6.5 7.2 9.1 9.5 9.6 10.6 10.6
7.5 21.9 25.7 10.3 2.2 4.4 11.9 39.6 41.9 34.2 37.4 17.4 12.6 8.5 11.5 8.1 19.6 22.3 21.2 32.6 30.7 40.0 22.2 19.2 25.0 21.5 12.6 10.0 12.7 12.2 11.9 11.8 12.2 12.8 13.1 14.7 17.0 16.6 13.4 11.2 12.8 12.4 12.5 13.4
7.7 10.5 11.1 12.8 26.9 41.4 49.3 46.2 23.3 18.3 16.6 13.9 10.5 7.5 9.2 14.0 12.6 26.6 28.7 30.6 27.7 31.3 13.1 22.8 21.6 13.7 11.9 14.5 15.4 15.2 14.8 14.4 13.5 13.4 14.5 13.5 13.9 15.1 14.8 15.1 15.2 13.7 12.6 11.5
13.4 32.0 47.5 42.0 44.5 60.0 43.9 25.8 17.4 17.0 12.2 12.9 11.8 14.0 13.2 16.3 19.9 31.0 28.5 34.0 26.7 13.7 19.0 18.0 17.0 13.1 12.7 15.4 16.8 16.8 16.2 14.5 14.0 14.0 12.6 12.3 12.9 12.2 12.1 12.2 10.3 10.3 9.9 10.9
38.5 52.8 57.5 36.6 34.1 17.4 15.6 12.9 12.3 12.7 13.8 15.7 16.9 18.3 18.4 16.1 26.5 22.9 31.6 22.1 12.8 26.8 20.9 18.4 16.3 15.6 14.4 13.4 14.4 14.3 14.7 14.4 13.7 15.9 15.5 13.6 12.1 11.3 10.0 10.7 11.9 10.4 9.6 10.4
57.2 44.3 39.2 23.0 12.5 10.1 13.4 13.8 13.3 15.2 16.3 20.9 21.8 21.8 19.7 23.3 29.5 19.7 15.2 23.0 23.8 20.8 19.4 17.4 17.6 16.8 16.1 15.3 14.0 13.1 11.8 12.7 12.2 12.1 12.2 13.5 11.1 8.7 7.9 9.7 10.1 9.7 9.1 8.1
49.2 38.8 20.4 10.2 10.3 11.9 10.8 13.5 14.2 14.0 15.9 15.7 19.1 20.4 23.3 22.9 19.2 20.1 18.3 17.8 19.7 20.7 20.6 19.6 17.4 15.9 15.5 15.9 15.2 14.6 14.5 14.4 14.4 13.0 13.8 12.1 12.8 14.5 14.4 11.0 10.0 9.9 9.7 8.2
49.6 21.8 12.4 13.7 11.8 12.2 12.0 11.4 10.8 8.7 11.3 13.5 14.4 22.5 17.8 16.5 19.2 17.2 14.0 19.4 21.0 18.5 15.7 13.9 14.8 14.3 13.9 12.5 11.0 10.6 9.2 8.8 8.9 10.1 11.2 13.2 13.5 12.7 10.9 11.6 14.5 13.2 13.0 12.0